TimeMDT,TemperatureF,Dew PointF,Humidity,Sea Level PressureIn,VisibilityMPH,Wind Direction,Wind SpeedMPH,Gust SpeedMPH,PrecipitationIn,Events,Conditions,WindDirDegrees,DateUTC
12:53 AM,39.0,23.0,53,30.11,10.0,WSW,6.9,-,N/A,,Clear,240,2012-10-07 06:53:00
1:53 AM,43.0,23.0,45,30.11,10.0,NW,5.8,-,N/A,,Clear,320,2012-10-07 07:53:00
2:53 AM,41.0,21.9,47,30.12,10.0,Calm,Calm,-,N/A,,Clear,0,2012-10-07 08:53:00
3:53 AM,39.0,24.1,55,30.11,10.0,SE,5.8,-,N/A,,Clear,130,2012-10-07 09:53:00
4:53 AM,39.0,24.1,55,30.12,10.0,SSE,3.5,-,N/A,,Clear,160,2012-10-07 10:53:00
5:53 AM,37.0,24.1,59,30.13,10.0,South,3.5,-,N/A,,Clear,170,2012-10-07 11:53:00
6:53 AM,36.0,25.0,64,30.15,10.0,SSE,6.9,-,N/A,,Clear,150,2012-10-07 12:53:00
7:53 AM,36.0,25.0,64,30.17,10.0,SSE,8.1,-,N/A,,Clear,160,2012-10-07 13:53:00
8:53 AM,42.1,21.9,45,30.17,10.0,SE,8.1,-,N/A,,Clear,140,2012-10-07 14:53:00
9:53 AM,48.0,21.9,36,30.19,10.0,SE,8.1,-,N/A,,Clear,140,2012-10-07 15:53:00
10:53 AM,53.6,19.4,26,30.22,10.0,SE,8.1,-,N/A,,Clear,140,2012-10-07 16:53:00
11:53 AM,55.9,15.1,20,30.17,10.0,Calm,Calm,-,N/A,,Clear,0,2012-10-07 17:53:00
12:53 PM,59.0,14.0,17,30.16,10.0,WNW,5.8,-,N/A,,Clear,300,2012-10-07 18:53:00
1:53 PM,60.1,12.9,16,30.12,10.0,Calm,Calm,-,N/A,,Clear,0,2012-10-07 19:53:00
2:53 PM,63.0,15.1,16,30.10,10.0,Calm,Calm,-,N/A,,Partly Cloudy,0,2012-10-07 20:53:00
3:53 PM,62.1,12.9,15,30.08,10.0,NNE,3.5,-,N/A,,Clear,30,2012-10-07 21:53:00
4:53 PM,62.1,15.1,16,30.08,10.0,NW,8.1,-,N/A,,Clear,310,2012-10-07 22:53:00
5:53 PM,60.1,19.9,21,30.08,10.0,NNW,5.8,-,N/A,,Clear,330,2012-10-07 23:53:00
6:53 PM,55.9,17.1,22,30.08,10.0,NNW,9.2,-,N/A,,Clear,340,2012-10-08 00:53:00
7:53 PM,50.0,24.1,36,30.09,10.0,North,5.8,-,N/A,,Clear,350,2012-10-08 01:53:00
8:53 PM,50.0,23.0,35,30.08,10.0,South,4.6,-,N/A,,Clear,190,2012-10-08 02:53:00
9:53 PM,46.9,19.0,33,30.08,10.0,SE,6.9,-,N/A,,Clear,140,2012-10-08 03:53:00
10:53 PM,46.0,19.9,35,30.07,10.0,SE,8.1,-,N/A,,Clear,130,2012-10-08 04:53:00
11:53 PM,45.0,17.1,33,30.06,10.0,SE,6.9,-,N/A,,Clear,140,2012-10-08 05:53:00